Simultaneous Nadir Overpasses (SNOs) Predictions

Prediction of SNOs between METOP-A and TERRA Satellite Orbit:

Table of predicted SNOs for the next 14.0 days since TLE Epoch: 2/19/2012
Index Date (METOP-A) Time (METOP-A) METOP-A Lat,Lon Date (TERRA) Time (TERRA) TERRA Lat,Lon Distance(km) Time Diff (sec)
1 02/20/2012 17:41:10 81.28, -38.80 02/20/2012 17:41:57 81.28, -38.84 0.62 47
2 02/20/2012 18:31:50 -81.29, 129.02 02/20/2012 18:31:23 -81.30, 129.11 1.80 27
3 02/23/2012 13:15:34 81.29, 27.85 02/23/2012 13:16:14 81.29, 27.67 3.02 40
4 02/23/2012 14:06:14 -81.29,-164.69 02/23/2012 14:05:40 -81.28,-164.74 1.03 34
5 02/26/2012 08:49:58 81.28, 94.11 02/26/2012 08:50:30 81.28, 94.07 0.68 32
6 02/26/2012 09:40:39 -81.29, -98.40 02/26/2012 09:39:57 -81.28, -98.32 1.37 42
7 02/29/2012 04:24:23 81.28, 160.38 02/29/2012 04:24:47 81.28, 160.37 0.61 24
8 02/29/2012 05:15:03 -81.29, -31.72 02/29/2012 05:14:13 -81.30, -31.64 1.61 50
9 03/02/2012 23:58:47 81.29,-132.96 03/02/2012 23:59:03 81.28,-133.07 1.81 16




NCC Satellite Simultaneous Nadir Overpasses (SNOs) Prediction Service
